{"data":{"norad_id":59612,"intl_designator":"2024-080M","name":"STARLINK-31748","alt_names":[],"object_type":"PAYLOAD","status":"ACTIVE","operator":null,"country":"US","launch_date":"2024-04-28","launch_site_code":"AFETR","launch_vehicle":null,"mission":null,"orbit_class":"UNKNOWN","rcs_meters":null,"size_class":null,"mass_kg":null,"dimensions":null,"purposes":["comms"],"wikipedia_slug":null,"has_3d_model":false,"image_url":null,"decayed_at":null,"tle_current":{"epoch":"2026-09-21T13:51:29.653920Z","epoch_age_seconds":75170,"freshness":"FRESH","line1":"1 59612U 24080M   26264.57742655  .00000235  00000+0  18075-4 0  9992","line2":"2 59612  43.0019   7.9645 0001189 274.4401  85.6315 15.27575373135703","mean_motion":15.27575373,"eccentricity":0.0001189,"inclination_deg":43.0019,"raan_deg":7.9645,"arg_perigee_deg":274.4401,"mean_anomaly_deg":85.6315,"bstar":1.8075e-5,"rev_number":13570,"period_min":94.267034246041,"perigee_km":482.24715430301,"apogee_km":483.87874765135,"semimajor_km":6861.1999509772,"source":"CELESTRAK","updated_at":"2026-09-22T09:00:49.011984Z"}}}